Dades meteomassalio
Diari Summary for Abril 13, 2017 Units:  Metric    English   Both
« Previous Day
Next Day »
Diari Semanal Mensual Anual Personalitzat
  Maxima: Minima: Mijana:
Temperatura: 28.1 °C 6.4 °C 17.3 °C
Rosada: 9.1 °C 2.6 °C 5.6 °C
Humitat: 84 % 20 % 52 %
Velocitat del vent: 24.1 km/h 0.0 km/h 3.7 km/h
Racha vent: 24.1 km/h - -
Vent:- - WSW
Pressio: 1018.8 hPa 1013.1 hPa -
Pluja: 0.0 mm    
Historical Graphs
 
 
Tabular Data for Abril 13, 2017
Time Temperature Dew Point Pressure Wind Wind Speed Wind Gust Humidity Rainfall Rate (Hourly) solar Conditions
00:00 10.8 °C 4.1 °C 1018.5 hPa Calm     63 % 0.0 mm 0.0 W/m2 CLR
00:05 10.7 °C 4.2 °C 1018.5 hPa Calm     64 % 0.0 mm 0.0 W/m2 CLR
00:10 10.6 °C 4.0 °C 1018.5 hPa Calm     64 % 0.0 mm 0.0 W/m2 CLR
00:15 10.4 °C 3.9 °C 1018.5 hPa Calm     64 % 0.0 mm 0.0 W/m2 CLR
00:20 10.3 °C 4.1 °C 1018.5 hPa Calm     65 % 0.0 mm 0.0 W/m2 CLR
00:26 10.2 °C 3.9 °C 1018.5 hPa Calm     65 % 0.0 mm 0.0 W/m2 CLR
00:31 9.9 °C 3.9 °C 1018.5 hPa Calm     66 % 0.0 mm 0.0 W/m2 CLR
00:36 9.8 °C 3.8 °C 1018.5 hPa Calm     66 % 0.0 mm 0.0 W/m2 CLR
00:41 9.7 °C 3.9 °C 1018.5 hPa Calm     67 % 0.0 mm 0.0 W/m2 CLR
00:46 9.7 °C 3.8 °C 1018.5 hPa Calm     67 % 0.0 mm 0.0 W/m2 CLR
00:51 9.6 °C 3.8 °C 1018.5 hPa Calm     67 % 0.0 mm 0.0 W/m2 CLR
00:56 9.6 °C 3.8 °C 1018.8 hPa Calm     67 % 0.0 mm 0.0 W/m2 CLR
01:01 9.6 °C 3.7 °C 1018.8 hPa Calm     67 % 0.0 mm 0.0 W/m2 CLR
01:06 9.4 °C 3.8 °C 1018.8 hPa Calm     68 % 0.0 mm 0.0 W/m2 CLR
01:11 9.4 °C 3.8 °C 1018.8 hPa Calm     68 % 0.0 mm 0.0 W/m2 CLR
01:16 9.6 °C 3.7 °C 1018.8 hPa Calm     67 % 0.0 mm 0.0 W/m2 CLR
01:21 9.6 °C 3.7 °C 1018.8 hPa Calm     67 % 0.0 mm 0.0 W/m2 CLR
01:26 9.4 °C 3.6 °C 1018.8 hPa Calm     67 % 0.0 mm 0.0 W/m2 CLR
01:31 9.2 °C 3.6 °C 1018.8 hPa Calm     68 % 0.0 mm 0.0 W/m2 CLR
01:36 9.1 °C 3.7 °C 1018.8 hPa Calm     69 % 0.0 mm 0.0 W/m2 CLR
01:41 8.9 °C 3.5 °C 1018.8 hPa Calm     69 % 0.0 mm 0.0 W/m2 CLR
01:46 8.8 °C 3.6 °C 1018.8 hPa Calm     70 % 0.0 mm 0.0 W/m2 CLR
01:51 8.7 °C 3.6 °C 1018.8 hPa Calm     70 % 0.0 mm 0.0 W/m2 CLR
01:56 8.6 °C 3.4 °C 1018.8 hPa Calm     70 % 0.0 mm 0.0 W/m2 CLR
02:01 8.6 °C 3.4 °C 1018.5 hPa Calm     70 % 0.0 mm 0.0 W/m2 CLR
02:06 8.7 °C 3.5 °C 1018.5 hPa Calm     70 % 0.0 mm 0.0 W/m2 CLR
02:11 8.6 °C 3.6 °C 1018.5 hPa Calm     71 % 0.0 mm 0.0 W/m2 CLR
02:16 8.5 °C 3.6 °C 1018.5 hPa Calm     71 % 0.0 mm 0.0 W/m2 CLR
02:21 8.4 °C 3.5 °C 1018.5 hPa Calm     71 % 0.0 mm 0.0 W/m2 CLR
02:26 8.4 °C 3.5 °C 1018.5 hPa Calm     71 % 0.0 mm 0.0 W/m2 CLR
02:31 8.4 °C 3.4 °C 1018.5 hPa Calm     71 % 0.0 mm 0.0 W/m2 CLR
02:36 8.4 °C 3.4 °C 1018.5 hPa Calm     71 % 0.0 mm 0.0 W/m2 CLR
02:41 8.4 °C 3.4 °C 1018.5 hPa Calm     71 % 0.0 mm 0.0 W/m2 CLR
02:46 8.3 °C 3.4 °C 1018.5 hPa Calm     71 % 0.0 mm 0.0 W/m2 CLR
02:51 8.3 °C 3.5 °C 1018.5 hPa Calm     72 % 0.0 mm 0.0 W/m2 CLR
02:56 8.2 °C 3.4 °C 1018.5 hPa Calm     72 % 0.0 mm 0.0 W/m2 CLR
03:01 8.1 °C 3.6 °C 1018.2 hPa Calm     73 % 0.0 mm 0.0 W/m2 CLR
03:06 7.9 °C 3.4 °C 1018.2 hPa Calm     73 % 0.0 mm 0.0 W/m2 CLR
03:11 7.9 °C 3.6 °C 1018.2 hPa Calm     74 % 0.0 mm 0.0 W/m2 CLR
03:16 7.8 °C 3.4 °C 1018.2 hPa Calm     74 % 0.0 mm 0.0 W/m2 CLR
03:21 7.7 °C 3.4 °C 1018.2 hPa Calm     74 % 0.0 mm 0.0 W/m2 CLR
03:26 7.7 °C 3.6 °C 1018.2 hPa Calm     75 % 0.0 mm 0.0 W/m2 CLR
03:31 7.7 °C 3.5 °C 1018.2 hPa Calm     75 % 0.0 mm 0.0 W/m2 CLR
03:36 7.6 °C 3.4 °C 1018.2 hPa Calm     75 % 0.0 mm 0.0 W/m2 CLR
03:41 7.6 °C 3.7 °C 1018.2 hPa Calm     76 % 0.0 mm 0.0 W/m2 CLR
03:46 7.7 °C 3.8 °C 1018.2 hPa Calm     76 % 0.0 mm 0.0 W/m2 CLR
03:51 7.9 °C 3.9 °C 1018.2 hPa Calm     76 % 0.0 mm 0.0 W/m2 CLR
03:56 8.0 °C 3.8 °C 1018.2 hPa Calm     75 % 0.0 mm 0.0 W/m2 CLR
04:01 8.0 °C 3.8 °C 1017.8 hPa Calm     75 % 0.0 mm 0.0 W/m2 CLR
04:06 8.1 °C 4.1 °C 1017.8 hPa Calm     76 % 0.0 mm 0.0 W/m2 CLR
04:11 8.0 °C 3.8 °C 1017.8 hPa Calm     75 % 0.0 mm 0.0 W/m2 CLR
04:16 7.9 °C 3.7 °C 1018.2 hPa Calm     75 % 0.0 mm 0.0 W/m2 CLR
04:21 7.8 °C 3.8 °C 1018.2 hPa Calm     76 % 0.0 mm 0.0 W/m2 CLR
04:26 7.6 °C 3.7 °C 1017.8 hPa Calm     76 % 0.0 mm 0.0 W/m2 CLR
04:31 7.6 °C 3.8 °C 1017.8 hPa Calm     77 % 0.0 mm 0.0 W/m2 CLR
04:36 7.6 °C 4.0 °C 1017.8 hPa Calm     78 % 0.0 mm 0.0 W/m2 CLR
04:41 7.5 °C 3.7 °C 1017.8 hPa Calm     77 % 0.0 mm 0.0 W/m2 CLR
04:46 7.4 °C 3.8 °C 1017.8 hPa Calm     78 % 0.0 mm 0.0 W/m2 CLR
04:51 7.3 °C 3.7 °C 1017.8 hPa Calm     78 % 0.0 mm 0.0 W/m2 CLR
04:56 7.2 °C 3.8 °C 1017.8 hPa Calm     79 % 0.0 mm 0.0 W/m2 CLR
05:01 7.2 °C 3.8 °C 1017.8 hPa Calm     79 % 0.0 mm 0.0 W/m2 CLR
05:06 7.2 °C 3.8 °C 1017.8 hPa Calm     79 % 0.0 mm 0.0 W/m2 CLR
05:11 7.2 °C 3.8 °C 1017.8 hPa Calm     79 % 0.0 mm 0.0 W/m2 CLR
05:16 7.3 °C 4.1 °C 1017.8 hPa Calm     80 % 0.0 mm 0.0 W/m2 CLR
05:21 7.2 °C 3.8 °C 1017.8 hPa Calm     79 % 0.0 mm 0.0 W/m2 CLR
05:26 7.1 °C 3.9 °C 1017.8 hPa Calm     80 % 0.0 mm 0.0 W/m2 CLR
05:31 7.1 °C 4.1 °C 1017.8 hPa Calm     81 % 0.0 mm 0.0 W/m2 CLR
05:36 7.1 °C 4.1 °C 1017.8 hPa Calm     81 % 0.0 mm 0.0 W/m2 CLR
05:41 7.3 °C 4.4 °C 1017.8 hPa Calm     82 % 0.0 mm 0.0 W/m2 CLR
05:46 7.3 °C 4.1 °C 1017.8 hPa Calm     80 % 0.0 mm 0.0 W/m2 CLR
05:51 7.4 °C 4.2 °C 1017.8 hPa Calm     80 % 0.0 mm 0.0 W/m2 CLR
05:56 7.5 °C 4.4 °C 1017.8 hPa Calm     81 % 0.0 mm 0.0 W/m2 CLR
06:01 7.4 °C 4.2 °C 1018.2 hPa Calm     80 % 0.0 mm 0.0 W/m2 CLR
06:06 7.4 °C 4.2 °C 1017.8 hPa Calm     80 % 0.0 mm 0.0 W/m2 CLR
06:11 7.3 °C 4.1 °C 1017.8 hPa Calm     80 % 0.0 mm 0.0 W/m2 CLR
06:16 7.3 °C 4.3 °C 1017.8 hPa Calm     81 % 0.0 mm 0.0 W/m2 CLR
06:22 7.3 °C 4.2 °C 1017.8 hPa Calm     81 % 0.0 mm 0.0 W/m2 CLR
06:27 7.2 °C 3.9 °C 1017.8 hPa Calm     80 % 0.0 mm 0.0 W/m2 CLR
06:32 6.9 °C 3.7 °C 1018.2 hPa Calm     80 % 0.0 mm 0.0 W/m2 CLR
06:37 6.7 °C 3.7 °C 1018.2 hPa Calm     81 % 0.0 mm 0.0 W/m2 CLR
06:42 6.6 °C 3.5 °C 1018.2 hPa Calm     81 % 0.0 mm 0.0 W/m2 CLR
06:47 6.4 °C 3.6 °C 1018.2 hPa Calm     82 % 0.0 mm 0.0 W/m2 CLR
06:52 6.4 °C 3.7 °C 1018.2 hPa Calm     83 % 0.0 mm 0.0 W/m2 CLR
06:57 6.4 °C 3.7 °C 1018.2 hPa Calm     83 % 0.0 mm 0.0 W/m2 CLR
07:02 6.6 °C 4.1 °C 1018.2 hPa Calm     84 % 0.0 mm 0.0 W/m2 CLR
07:07 6.6 °C 4.1 °C 1018.2 hPa Calm     84 % 0.0 mm 0.0 W/m2 CLR
07:12 6.7 °C 4.2 °C 1018.2 hPa Calm     84 % 0.0 mm 0.0 W/m2 CLR
07:17 6.8 °C 4.3 °C 1018.2 hPa Calm     84 % 0.0 mm 0.0 W/m2 OVC
07:22 6.8 °C 4.2 °C 1018.5 hPa Calm     83 % 0.0 mm 0.0 W/m2 OVC
07:27 6.8 °C 4.2 °C 1018.5 hPa Calm     83 % 0.0 mm 7.0 W/m2 BKN
07:32 6.9 °C 4.2 °C 1018.5 hPa Calm     83 % 0.0 mm 9.0 W/m2 BKN
07:37 6.8 °C 4.2 °C 1018.5 hPa Calm     83 % 0.0 mm 12.0 W/m2 BKN
07:42 6.9 °C 4.2 °C 1018.5 hPa Calm     83 % 0.0 mm 16.0 W/m2 BKN
07:47 7.0 °C 4.3 °C 1018.5 hPa Calm     83 % 0.0 mm 18.0 W/m2 BKN
07:52 7.1 °C 4.4 °C 1018.5 hPa Calm     83 % 0.0 mm 21.0 W/m2 BKN
07:57 7.2 °C 4.5 °C 1018.8 hPa Calm     83 % 0.0 mm 30.0 W/m2 BKN
08:02 7.3 °C 4.4 °C 1018.8 hPa Calm     82 % 0.0 mm 39.0 W/m2 BKN
08:07 7.6 °C 4.8 °C 1018.8 hPa Calm     83 % 0.0 mm 51.0 W/m2 SCT
08:12 7.9 °C 5.0 °C 1018.8 hPa Calm     82 % 0.0 mm 58.0 W/m2 SCT
08:17 8.1 °C 5.1 °C 1018.8 hPa Calm     81 % 0.0 mm 70.0 W/m2 FEW
08:22 8.4 °C 5.3 °C 1018.8 hPa Calm     81 % 0.0 mm 81.0 W/m2 FEW
08:27 8.8 °C 5.5 °C 1018.8 hPa Calm     80 % 0.0 mm 109.0 W/m2 FEW
08:32 9.4 °C 5.9 °C 1018.8 hPa Calm     79 % 0.0 mm 125.0 W/m2 CLR
08:37 9.9 °C 6.1 °C 1018.8 hPa Calm     77 % 0.0 mm 142.0 W/m2 CLR
08:42 10.6 °C 6.3 °C 1018.8 hPa Calm     75 % 0.0 mm 163.0 W/m2 CLR
08:47 11.0 °C 6.3 °C 1018.8 hPa Calm     73 % 0.0 mm 181.0 W/m2 CLR
08:52 11.4 °C 6.7 °C 1018.8 hPa Calm     73 % 0.0 mm 200.0 W/m2 CLR
08:57 11.9 °C 7.1 °C 1018.8 hPa Calm     72 % 0.0 mm 60.0 W/m2 CLR
09:02 12.6 °C 7.2 °C 1018.8 hPa Calm     70 % 0.0 mm 220.0 W/m2 FEW
09:07 13.1 °C 7.3 °C 1018.5 hPa Calm     68 % 0.0 mm 251.0 W/m2 FEW
09:12 13.5 °C 7.5 °C 1018.5 hPa Calm     67 % 0.0 mm 267.0 W/m2 CLR
09:17 14.0 °C 7.7 °C 1018.5 hPa Calm     66 % 0.0 mm 283.0 W/m2 CLR
09:22 14.6 °C 7.8 °C 1018.5 hPa Calm     64 % 0.0 mm 299.0 W/m2 CLR
09:27 14.7 °C 7.5 °C 1018.5 hPa Calm     62 % 0.0 mm 320.0 W/m2 CLR
09:32 14.8 °C 7.8 °C 1018.2 hPa Calm     63 % 0.0 mm 336.0 W/m2 CLR
09:37 15.0 °C 8.2 °C 1018.2 hPa Calm     64 % 0.0 mm 353.0 W/m2 CLR
09:42 15.3 °C 8.1 °C 1018.2 hPa Calm     62 % 0.0 mm 367.0 W/m2 CLR
09:47 15.6 °C 8.6 °C 1018.2 hPa Calm     63 % 0.0 mm 387.0 W/m2 CLR
09:52 16.1 °C 8.8 °C 1018.2 hPa Calm     62 % 0.0 mm 401.0 W/m2 CLR
09:57 16.6 °C 9.0 °C 1018.2 hPa Calm     61 % 0.0 mm 417.0 W/m2 CLR
10:02 17.1 °C 8.7 °C 1018.2 hPa Calm     58 % 0.0 mm 432.0 W/m2 CLR
10:07 17.6 °C 8.7 °C 1018.2 hPa Calm     56 % 0.0 mm 450.0 W/m2 CLR
10:12 18.1 °C 8.9 °C 1018.2 hPa Calm     55 % 0.0 mm 468.0 W/m2 CLR
10:17 18.6 °C 9.1 °C 1018.2 hPa Calm     54 % 0.0 mm 483.0 W/m2 CLR
10:22 18.9 °C 9.1 °C 1017.8 hPa Calm     53 % 0.0 mm 496.0 W/m2 CLR
10:27 19.2 °C 8.5 °C 1017.8 hPa NNW 12.9 km/h 12.9 km/h 50 % 0.0 mm 510.0 W/m2 CLR
10:32 19.5 °C 8.2 °C 1017.8 hPa NW 16.7 km/h 16.7 km/h 48 % 0.0 mm 526.0 W/m2 CLR
10:37 19.5 °C 8.2 °C 1017.8 hPa NW 7.4 km/h 9.5 km/h 48 % 0.0 mm 540.0 W/m2 CLR
10:42 19.6 °C 7.9 °C 1017.8 hPa NW 13.0 km/h 13.0 km/h 47 % 0.0 mm 554.0 W/m2 CLR
10:47 19.6 °C 8.0 °C 1017.8 hPa NW 9.7 km/h 9.7 km/h 47 % 0.0 mm 566.0 W/m2 CLR
10:52 19.7 °C 7.4 °C 1017.8 hPa North 7.4 km/h 7.4 km/h 45 % 0.0 mm 582.0 W/m2 CLR
10:57 19.8 °C 7.6 °C 1017.8 hPa WNW 5.6 km/h   45 % 0.0 mm 594.0 W/m2 CLR
11:02 20.1 °C 8.1 °C 1017.8 hPa WNW 11.1 km/h 11.1 km/h 46 % 0.0 mm 608.0 W/m2 CLR
11:07 20.3 °C 7.9 °C 1017.8 hPa WNW 5.6 km/h 5.6 km/h 45 % 0.0 mm 621.0 W/m2 CLR
11:12 20.4 °C 8.1 °C 1017.8 hPa NNW 8.0 km/h 8.0 km/h 45 % 0.0 mm 633.0 W/m2 CLR
11:17 20.7 °C 8.3 °C 1017.8 hPa WNW 5.6 km/h 5.6 km/h 45 % 0.0 mm 649.0 W/m2 CLR
11:22 20.9 °C 8.2 °C 1017.8 hPa NNW 9.3 km/h 9.3 km/h 44 % 0.0 mm 659.0 W/m2 CLR
11:27 21.0 °C 7.9 °C 1017.8 hPa NW 5.6 km/h   43 % 0.0 mm 670.0 W/m2 CLR
11:32 21.2 °C 7.7 °C 1017.8 hPa NW 11.1 km/h 11.1 km/h 42 % 0.0 mm 682.0 W/m2 CLR
11:37 21.3 °C 7.8 °C 1017.8 hPa West 5.6 km/h 5.6 km/h 42 % 0.0 mm 694.0 W/m2 CLR
11:42 21.6 °C 7.4 °C 1017.8 hPa WNW 5.6 km/h 5.6 km/h 40 % 0.0 mm 701.0 W/m2 CLR
11:47 21.7 °C 7.1 °C 1017.5 hPa NNW 11.1 km/h 11.1 km/h 39 % 0.0 mm 712.0 W/m2 CLR
11:52 21.9 °C 8.1 °C 1017.5 hPa NW 11.3 km/h 11.3 km/h 41 % 0.0 mm 722.0 W/m2 CLR
11:57 21.9 °C 7.7 °C 1017.5 hPa NW 5.6 km/h 5.6 km/h 40 % 0.0 mm 731.0 W/m2 CLR
12:02 22.1 °C 7.9 °C 1017.5 hPa North 11.1 km/h 11.1 km/h 40 % 0.0 mm 742.0 W/m2 CLR
12:08 22.2 °C 7.9 °C 1017.5 hPa North 9.7 km/h 10.3 km/h 40 % 0.0 mm 751.0 W/m2 CLR
12:13 22.1 °C 7.5 °C 1017.5 hPa NE 12.9 km/h 12.9 km/h 39 % 0.0 mm 759.0 W/m2 CLR
12:18 22.3 °C 8.4 °C 1017.5 hPa Calm     41 % 0.0 mm 766.0 W/m2 CLR
12:23 22.8 °C 8.5 °C 1017.2 hPa North 4.8 km/h 4.8 km/h 40 % 0.0 mm 777.0 W/m2 CLR
12:28 23.1 °C 7.9 °C 1017.2 hPa NNW 13.0 km/h 13.0 km/h 38 % 0.0 mm 784.0 W/m2 CLR
12:33 23.0 °C 7.9 °C 1017.2 hPa North 11.1 km/h 11.1 km/h 38 % 0.0 mm 791.0 W/m2 CLR
12:38 22.8 °C 8.5 °C 1017.2 hPa NNE 16.1 km/h 16.1 km/h 40 % 0.0 mm 798.0 W/m2 CLR
12:43 22.8 °C 8.1 °C 1017.2 hPa NE 9.3 km/h 9.3 km/h 39 % 0.0 mm 807.0 W/m2 CLR
12:48 23.1 °C 7.9 °C 1016.8 hPa NE 9.3 km/h 9.3 km/h 38 % 0.0 mm 816.0 W/m2 CLR
12:53 23.4 °C 7.9 °C 1016.8 hPa Calm     37 % 0.0 mm 819.0 W/m2 CLR
12:58 23.6 °C 8.0 °C 1016.8 hPa NE 9.3 km/h 9.3 km/h 37 % 0.0 mm 826.0 W/m2 CLR
13:03 23.8 °C 8.6 °C 1016.8 hPa East 5.6 km/h 5.6 km/h 38 % 0.0 mm 835.0 W/m2 CLR
13:08 24.2 °C 8.6 °C 1016.8 hPa NW 5.6 km/h 5.6 km/h 37 % 0.0 mm 835.0 W/m2 CLR
13:13 24.1 °C 8.1 °C 1016.8 hPa Calm     36 % 0.0 mm 846.0 W/m2 CLR
13:18 24.1 °C 8.5 °C 1016.8 hPa NNE 5.6 km/h 5.6 km/h 37 % 0.0 mm 847.0 W/m2 CLR
13:23 24.4 °C 8.3 °C 1016.5 hPa NE 5.6 km/h 5.6 km/h 36 % 0.0 mm 849.0 W/m2 CLR
13:28 24.7 °C 8.2 °C 1016.5 hPa NNW 9.3 km/h 9.3 km/h 35 % 0.0 mm 851.0 W/m2 CLR
13:33 24.7 °C 8.2 °C 1016.5 hPa Calm     35 % 0.0 mm 854.0 W/m2 CLR
13:38 24.8 °C 7.9 °C 1016.5 hPa ESE 5.6 km/h 5.6 km/h 34 % 0.0 mm 860.0 W/m2 CLR
13:43 25.0 °C 8.1 °C 1016.5 hPa North 7.4 km/h 7.4 km/h 34 % 0.0 mm 860.0 W/m2 CLR
13:48 24.9 °C 7.5 °C 1016.1 hPa Calm     33 % 0.0 mm 861.0 W/m2 CLR
13:53 24.8 °C 7.9 °C 1016.1 hPa NE 1.9 km/h   34 % 0.0 mm 861.0 W/m2 CLR
13:58 25.1 °C 7.7 °C 1016.1 hPa NNE 9.3 km/h 9.3 km/h 33 % 0.0 mm 865.0 W/m2 CLR
14:03 25.2 °C 8.2 °C 1016.1 hPa Calm     34 % 0.0 mm 863.0 W/m2 CLR
14:08 25.6 °C 8.1 °C 1016.1 hPa NNE 5.6 km/h 5.6 km/h 33 % 0.0 mm 861.0 W/m2 CLR
14:13 26.0 °C 8.0 °C 1015.8 hPa NE 9.3 km/h 9.3 km/h 32 % 0.0 mm 863.0 W/m2 CLR
14:18 26.1 °C 7.7 °C 1015.8 hPa NNE 6.4 km/h 6.4 km/h 31 % 0.0 mm 861.0 W/m2 CLR
14:23 26.3 °C 7.8 °C 1015.8 hPa NNE 11.1 km/h 11.1 km/h 31 % 0.0 mm 858.0 W/m2 CLR
14:28 26.3 °C 8.3 °C 1015.8 hPa NNW 3.7 km/h 3.7 km/h 32 % 0.0 mm 854.0 W/m2 CLR
14:33 26.3 °C 7.3 °C 1015.8 hPa North 16.7 km/h 16.7 km/h 30 % 0.0 mm 853.0 W/m2 CLR
14:38 26.1 °C 6.6 °C 1015.8 hPa North 13.0 km/h 13.0 km/h 29 % 0.0 mm 849.0 W/m2 CLR
14:43 26.1 °C 6.7 °C 1015.5 hPa NNW 13.0 km/h 13.0 km/h 29 % 0.0 mm 844.0 W/m2 CLR
14:48 26.0 °C 6.6 °C 1015.5 hPa NE 7.4 km/h 7.4 km/h 29 % 0.0 mm 842.0 W/m2 CLR
14:53 26.0 °C 6.6 °C 1015.5 hPa North 16.1 km/h 16.1 km/h 29 % 0.0 mm 838.0 W/m2 CLR
14:58 26.0 °C 7.6 °C 1015.5 hPa ENE 3.7 km/h 3.7 km/h 31 % 0.0 mm 833.0 W/m2 CLR
15:03 26.3 °C 6.9 °C 1015.5 hPa NNW 20.4 km/h 20.4 km/h 29 % 0.0 mm 826.0 W/m2 CLR
15:08 26.4 °C 6.9 °C 1015.5 hPa NNW 16.7 km/h 16.7 km/h 29 % 0.0 mm 819.0 W/m2 CLR
15:13 26.2 °C 6.8 °C 1015.1 hPa North 18.5 km/h 18.5 km/h 29 % 0.0 mm 814.0 W/m2 CLR
15:14 26.2 °C 6.7 °C 1015.1 hPa North 16.7 km/h 16.7 km/h 29 % 0.0 mm 814.0 W/m2 CLR
15:19 26.1 °C 7.2 °C 1015.1 hPa NNW 16.7 km/h 16.7 km/h 30 % 0.0 mm 803.0 W/m2 CLR
15:24 26.1 °C 6.7 °C 1015.1 hPa NNE 11.1 km/h 11.1 km/h 29 % 0.0 mm 802.0 W/m2 CLR
15:29 26.1 °C 7.7 °C 1015.1 hPa NW 16.7 km/h 16.7 km/h 31 % 0.0 mm 798.0 W/m2 CLR
15:34 26.1 °C 7.2 °C 1015.1 hPa NNW 5.6 km/h 5.6 km/h 30 % 0.0 mm 786.0 W/m2 CLR
15:39 26.4 °C 7.9 °C 1015.1 hPa NW 17.7 km/h 17.7 km/h 31 % 0.0 mm 780.0 W/m2 CLR
15:44 26.6 °C 7.6 °C 1014.8 hPa NNW 7.4 km/h 7.4 km/h 30 % 0.0 mm 768.0 W/m2 CLR
15:49 26.8 °C 8.2 °C 1014.8 hPa North 13.0 km/h 13.0 km/h 31 % 0.0 mm 763.0 W/m2 CLR
15:54 26.9 °C 7.3 °C 1014.8 hPa North 16.7 km/h 16.7 km/h 29 % 0.0 mm 756.0 W/m2 CLR
15:59 26.7 °C 7.2 °C 1014.8 hPa North 16.1 km/h 16.1 km/h 29 % 0.0 mm 745.0 W/m2 CLR
16:04 26.7 °C 7.2 °C 1014.8 hPa WNW 18.5 km/h 18.5 km/h 29 % 0.0 mm 735.0 W/m2 CLR
16:09 26.9 °C 7.8 °C 1014.4 hPa North 11.1 km/h 11.1 km/h 30 % 0.0 mm 724.0 W/m2 CLR
16:14 26.9 °C 7.3 °C 1014.4 hPa North 18.5 km/h 18.5 km/h 29 % 0.0 mm 712.0 W/m2 CLR
16:19 27.0 °C 7.4 °C 1014.4 hPa NW 11.1 km/h 11.1 km/h 29 % 0.0 mm 701.0 W/m2 CLR
16:24 27.3 °C 7.7 °C 1014.4 hPa NNW 7.4 km/h 7.4 km/h 29 % 0.0 mm 694.0 W/m2 CLR
16:29 27.6 °C 6.4 °C 1014.4 hPa NNW 12.9 km/h 12.9 km/h 26 % 0.0 mm 680.0 W/m2 CLR
16:34 27.3 °C 6.1 °C 1014.1 hPa NW 9.7 km/h 9.8 km/h 26 % 0.0 mm 673.0 W/m2 CLR
16:39 27.2 °C 6.1 °C 1014.1 hPa NW 11.1 km/h 11.1 km/h 26 % 0.0 mm 661.0 W/m2 CLR
16:44 27.2 °C 4.8 °C 1014.1 hPa North 13.0 km/h 16.7 km/h 24 % 0.0 mm 650.0 W/m2 CLR
16:49 27.1 °C 5.9 °C 1014.1 hPa NW 22.2 km/h 22.2 km/h 26 % 0.0 mm 636.0 W/m2 CLR
16:54 27.1 °C 5.4 °C 1014.1 hPa NNW 20.4 km/h 20.4 km/h 25 % 0.0 mm 622.0 W/m2 CLR
17:00 27.3 °C 6.1 °C 1014.1 hPa North 16.1 km/h 16.1 km/h 26 % 0.0 mm 608.0 W/m2 CLR
17:04 27.3 °C 3.7 °C 1014.1 hPa North 24.1 km/h 24.1 km/h 22 % 0.0 mm 598.0 W/m2 CLR
17:10 27.5 °C 4.5 °C 1014.1 hPa NE 5.6 km/h 5.6 km/h 23 % 0.0 mm 582.0 W/m2 CLR
17:15 27.5 °C 4.5 °C 1013.8 hPa NNW 8.0 km/h 8.0 km/h 23 % 0.0 mm 570.0 W/m2 CLR
17:19 27.5 °C 3.9 °C 1013.8 hPa North 9.3 km/h 9.3 km/h 22 % 0.0 mm 557.0 W/m2 CLR
17:25 27.6 °C 3.3 °C 1013.8 hPa NNW 7.4 km/h 7.4 km/h 21 % 0.0 mm 536.0 W/m2 CLR
17:30 27.6 °C 3.3 °C 1013.8 hPa NNW 13.0 km/h 13.0 km/h 21 % 0.0 mm 524.0 W/m2 CLR
17:35 27.6 °C 2.6 °C 1013.8 hPa North 16.7 km/h 16.7 km/h 20 % 0.0 mm 510.0 W/m2 CLR
17:40 27.6 °C 2.6 °C 1013.8 hPa NNE 22.2 km/h 22.2 km/h 20 % 0.0 mm 497.0 W/m2 CLR
17:45 27.7 °C 4.0 °C 1013.4 hPa North 5.6 km/h 5.6 km/h 22 % 0.0 mm 478.0 W/m2 CLR
17:50 27.9 °C 4.2 °C 1013.4 hPa NNW 5.6 km/h 5.6 km/h 22 % 0.0 mm 464.0 W/m2 CLR
17:55 28.1 °C 3.7 °C 1013.4 hPa North 13.0 km/h 13.0 km/h 21 % 0.0 mm 448.0 W/m2 CLR
18:00 28.0 °C 4.3 °C 1013.4 hPa NNW 9.3 km/h 9.3 km/h 22 % 0.0 mm 434.0 W/m2 CLR
18:05 28.1 °C 3.7 °C 1013.4 hPa North 9.3 km/h 9.3 km/h 21 % 0.0 mm 415.0 W/m2 CLR
18:10 27.9 °C 4.2 °C 1013.4 hPa North 14.5 km/h 14.5 km/h 22 % 0.0 mm 399.0 W/m2 CLR
18:15 27.7 °C 3.4 °C 1013.4 hPa NNE 18.5 km/h 18.5 km/h 21 % 0.0 mm 383.0 W/m2 CLR
18:20 27.7 °C 4.1 °C 1013.4 hPa NNE 3.2 km/h 3.2 km/h 22 % 0.0 mm 369.0 W/m2 CLR
18:25 27.8 °C 4.1 °C 1013.4 hPa NNE 8.0 km/h 8.0 km/h 22 % 0.0 mm 353.0 W/m2 CLR
18:30 27.8 °C 4.8 °C 1013.4 hPa North 11.3 km/h 11.3 km/h 23 % 0.0 mm 334.0 W/m2 CLR
18:35 27.8 °C 4.2 °C 1013.4 hPa NW 13.0 km/h 13.0 km/h 22 % 0.0 mm 313.0 W/m2 CLR
18:40 27.8 °C 4.8 °C 1013.4 hPa NNW 5.6 km/h 5.6 km/h 23 % 0.0 mm 295.0 W/m2 CLR
18:45 27.7 °C 4.1 °C 1013.4 hPa NE 5.6 km/h 5.6 km/h 22 % 0.0 mm 230.0 W/m2 CLR
18:50 27.6 °C 4.6 °C 1013.4 hPa North 9.3 km/h 9.3 km/h 23 % 0.0 mm 218.0 W/m2 CLR
18:55 27.4 °C 4.4 °C 1013.4 hPa North 7.4 km/h 7.4 km/h 23 % 0.0 mm 237.0 W/m2 CLR
19:00 27.4 °C 4.4 °C 1013.4 hPa NNE 5.6 km/h 5.6 km/h 23 % 0.0 mm 207.0 W/m2 CLR
19:05 27.5 °C 4.5 °C 1013.1 hPa North 3.2 km/h 3.2 km/h 23 % 0.0 mm 146.0 W/m2 CLR
19:10 27.5 °C 5.1 °C 1013.1 hPa Calm     24 % 0.0 mm 190.0 W/m2 CLR
19:15 27.4 °C 4.4 °C 1013.1 hPa Calm     23 % 0.0 mm 158.0 W/m2 CLR
19:20 27.3 °C 4.4 °C 1013.1 hPa NW 1.9 km/h 1.9 km/h 23 % 0.0 mm 155.0 W/m2 CLR
19:25 27.3 °C 5.0 °C 1013.1 hPa Calm     24 % 0.0 mm 146.0 W/m2 CLR
19:30 27.3 °C 4.3 °C 1013.1 hPa Calm     23 % 0.0 mm 137.0 W/m2 CLR
19:35 27.2 °C 4.8 °C 1013.1 hPa Calm     24 % 0.0 mm 90.0 W/m2 CLR
19:40 27.0 °C 5.3 °C 1013.1 hPa Calm     25 % 0.0 mm 83.0 W/m2 FEW
19:45 26.8 °C 5.7 °C 1013.1 hPa Calm     26 % 0.0 mm 60.0 W/m2 SCT
19:50 26.5 °C 5.4 °C 1013.1 hPa WNW 1.9 km/h 1.9 km/h 26 % 0.0 mm 63.0 W/m2 SCT
19:55 26.1 °C 5.6 °C 1013.1 hPa Calm     27 % 0.0 mm 56.0 W/m2 SCT
20:00 25.7 °C 5.3 °C 1013.4 hPa Calm     27 % 0.0 mm 46.0 W/m2 SCT
20:05 25.2 °C 5.4 °C 1013.4 hPa Calm     28 % 0.0 mm 37.0 W/m2 BKN
20:10 24.9 °C 5.2 °C 1013.4 hPa Calm     28 % 0.0 mm 33.0 W/m2 BKN
20:15 24.6 °C 5.3 °C 1013.4 hPa Calm     29 % 0.0 mm 28.0 W/m2 BKN
20:20 24.2 °C 5.6 °C 1013.4 hPa Calm     30 % 0.0 mm 25.0 W/m2 BKN
20:25 23.8 °C 5.7 °C 1013.4 hPa Calm     31 % 0.0 mm 19.0 W/m2 BKN
20:30 23.6 °C 5.4 °C 1013.4 hPa Calm     31 % 0.0 mm 9.0 W/m2 BKN
20:35 23.4 °C 5.7 °C 1013.4 hPa Calm     32 % 0.0 mm 5.0 W/m2 OVC
20:40 23.2 °C 5.1 °C 1013.8 hPa Calm     31 % 0.0 mm 0.0 W/m2 OVC
20:45 23.1 °C 5.1 °C 1013.8 hPa Calm     31 % 0.0 mm 0.0 W/m2 OVC
20:50 22.9 °C 5.8 °C 1013.8 hPa Calm     33 % 0.0 mm 0.0 W/m2 CLR
20:55 22.5 °C 5.4 °C 1013.8 hPa Calm     33 % 0.0 mm 0.0 W/m2 CLR
21:00 22.2 °C 5.6 °C 1014.1 hPa Calm     34 % 0.0 mm 0.0 W/m2 CLR
21:05 21.8 °C 6.9 °C 1014.1 hPa Calm     38 % 0.0 mm 0.0 W/m2 CLR
21:10 21.5 °C 6.9 °C 1014.1 hPa Calm     39 % 0.0 mm 0.0 W/m2 CLR
21:15 21.1 °C 6.2 °C 1014.1 hPa Calm     38 % 0.0 mm 0.0 W/m2 CLR
21:20 20.8 °C 6.3 °C 1014.4 hPa Calm     39 % 0.0 mm 0.0 W/m2 CLR
21:25 20.6 °C 6.5 °C 1014.4 hPa Calm     40 % 0.0 mm 0.0 W/m2 CLR
21:30 20.3 °C 6.3 °C 1014.4 hPa Calm     40 % 0.0 mm 0.0 W/m2 CLR
21:35 20.1 °C 6.4 °C 1014.4 hPa Calm     41 % 0.0 mm 0.0 W/m2 CLR
21:40 19.8 °C 6.9 °C 1014.8 hPa Calm     43 % 0.0 mm 0.0 W/m2 CLR
21:45 19.6 °C 6.7 °C 1014.8 hPa Calm     43 % 0.0 mm 0.0 W/m2 CLR
21:50 19.5 °C 6.2 °C 1014.8 hPa Calm     42 % 0.0 mm 0.0 W/m2 CLR
21:55 19.5 °C 6.2 °C 1015.1 hPa Calm     42 % 0.0 mm 0.0 W/m2 CLR
22:00 19.4 °C 6.6 °C 1015.1 hPa Calm     43 % 0.0 mm 0.0 W/m2 CLR
22:05 19.2 °C 6.3 °C 1015.1 hPa Calm     43 % 0.0 mm 0.0 W/m2 CLR
22:10 19.1 °C 6.5 °C 1015.1 hPa Calm     44 % 0.0 mm 0.0 W/m2 CLR
22:16 18.8 °C 6.6 °C 1015.1 hPa Calm     45 % 0.0 mm 0.0 W/m2 CLR
22:21 18.4 °C 6.2 °C 1015.1 hPa Calm     45 % 0.0 mm 0.0 W/m2 CLR
22:26 18.2 °C 6.1 °C 1015.1 hPa Calm     45 % 0.0 mm 0.0 W/m2 CLR
22:31 18.0 °C 6.5 °C 1015.1 hPa Calm     47 % 0.0 mm 0.0 W/m2 CLR
22:36 17.7 °C 6.3 °C 1015.5 hPa Calm     47 % 0.0 mm 0.0 W/m2 CLR
22:41 17.4 °C 6.6 °C 1015.5 hPa Calm     49 % 0.0 mm 0.0 W/m2 CLR
22:46 17.1 °C 6.6 °C 1015.5 hPa Calm     50 % 0.0 mm 0.0 W/m2 CLR
22:51 16.8 °C 6.6 °C 1015.5 hPa Calm     51 % 0.0 mm 0.0 W/m2 CLR
22:56 16.6 °C 6.7 °C 1015.5 hPa Calm     52 % 0.0 mm 0.0 W/m2 CLR
23:01 16.4 °C 6.5 °C 1015.8 hPa Calm     52 % 0.0 mm 0.0 W/m2 CLR
23:06 16.3 °C 6.4 °C 1015.8 hPa Calm     52 % 0.0 mm 0.0 W/m2 CLR
23:11 16.1 °C 6.2 °C 1015.8 hPa Calm     52 % 0.0 mm 0.0 W/m2 CLR
23:16 16.1 °C 6.2 °C 1015.8 hPa Calm     52 % 0.0 mm 0.0 W/m2 CLR
23:21 16.1 °C 6.4 °C 1015.8 hPa Calm     53 % 0.0 mm 0.0 W/m2 CLR
23:26 15.9 °C 6.4 °C 1015.8 hPa Calm     53 % 0.0 mm 0.0 W/m2 CLR
23:31 15.9 °C 6.1 °C 1015.8 hPa Calm     52 % 0.0 mm 0.0 W/m2 CLR
23:36 15.9 °C 6.1 °C 1015.8 hPa Calm     52 % 0.0 mm 0.0 W/m2 CLR
23:41 15.9 °C 6.1 °C 1015.8 hPa Calm     52 % 0.0 mm 0.0 W/m2 CLR
23:46 15.8 °C 6.0 °C 1015.8 hPa Calm     52 % 0.0 mm 0.0 W/m2 CLR
23:51 15.8 °C 5.9 °C 1015.8 hPa Calm     52 % 0.0 mm 0.0 W/m2 CLR
23:56 15.8 °C 6.0 °C 1015.8 hPa Calm     52 % 0.0 mm 0.0 W/m2 CLR
Lo Temps de Massalio
Compliments of Weather Underground - 1.25 mb